FW5356 Weather Reports


time (UTC)temp
C
wind
direction
speed
KPH
gust
KPH
rain 1hr
cm
rain 24hr
cm
rain mn
cm
humidity
%
barometer
mb
20260504211539 20 257 4.8 22.5 0.00 0.00 0.00 38 1010.6
20260504210038 20 296 9.7 32.2 0.00 0.00 0.00 37 1010.6
20260504204540 20 334 6.4 24.1 0.00 0.00 0.00 38 1010.5
20260504203039 20 360 12.9 29.0 0.00 0.00 0.00 35 1010.5
20260504201536 20 205 11.3 33.8 0.00 0.00 0.00 35 1010.6
20260504200035 21 312 11.3 22.5 0.00 0.00 0.00 35 1010.6
20260504194533 20 309 8.0 30.6 0.00 0.00 0.00 38 1010.7
20260504193030 20 312 9.7 22.5 0.00 0.00 0.00 37 1010.6
20260504191528 18 289 16.1 33.8 0.00 0.00 0.00 38 1010.7
20260504190027 20 269 11.3 30.6 0.00 0.00 0.00 36 1010.7
20260504184525 19 176 12.9 24.1 0.00 0.00 0.00 39 1011.0
20260504183024 18 309 11.3 25.7 0.00 0.00 0.00 37 1011.1
20260504181523 19 229 12.9 37.0 0.00 0.00 0.00 36 1011.1
20260504180023 18 236 19.3 37.0 0.00 0.00 0.00 37 1011.3
20260504174520 18 302 14.5 40.2 0.00 0.00 0.00 39 1011.2
20260504173021 18 269 12.9 33.8 0.00 0.00 0.00 38 1011.4
20260504171524 18 313 19.3 40.2 0.00 0.00 0.00 36 1011.3
20260504090123 6 279 4.8 16.1 0.00 0.00 0.00 67 1014.3
20260504081557 6 274 4.8 14.5 0.00 0.00 0.00 66 1014.3
20260504044530 2 257 1.6 6.4 0.00 0.00 0.00 71 1014.5
20260504043042 2 260 1.6 6.4 0.00 0.00 0.00 74 1014.5
20260504041525 2 230 1.6 4.8 0.00 0.00 0.00 71 1014.4
20260504040025 2 249 0.0 4.8 0.00 0.00 0.00 69 1014.3
20260504034520 2 249 1.6 4.8 0.00 0.00 0.00 69 1014.3
20260504033020 2 252 0.0 4.8 0.00 0.00 0.00 70 1014.3
20260504031520 2 252 0.0 3.2 0.00 0.00 0.00 71 1014.2
20260504030018 3 252 1.6 4.8 0.00 0.00 0.00 71 1014.2
20260504024518 3 252 1.6 6.4 0.00 0.03 0.00 69 1014.2
20260504023021 3 273 0.0 4.8 0.00 0.03 0.00 70 1014.3
20260504021517 3 344 0.0 3.2 0.00 0.03 0.00 71 1014.3
20260504020016 3 344 0.0 1.6 0.00 0.03 0.00 67 1014.2
20260504014516 4 344 0.0 3.2 0.00 0.03 0.00 64 1014.1
20260504013019 5 350 0.0 4.8 0.00 0.03 0.00 63 1014.0
20260504011521 5 295 0.0 3.2 0.00 0.03 0.00 61 1013.8
20260504010014 5 288 0.0 4.8 0.00 0.03 0.00 61 1013.6
20260504004514 5 303 0.0 4.8 0.00 0.03 0.00 60 1013.4
20260504003013 6 325 0.0 1.6 0.00 0.03 0.00 59 1013.3
20260504001513 6 325 0.0 6.4 0.00 0.03 0.00 57 1013.2
20260504000012 6 360 1.6 8.0 0.00 0.03 0.00 56 1012.9
20260503234512 7 283 3.2 8.0 0.00 0.05 0.00 56 1012.9
20260503233010 7 311 1.6 12.9 0.00 0.05 0.00 54 1012.7
20260503231516 8 298 1.6 19.3 0.00 0.05 0.00 52 1012.7
20260503230010 8 335 4.8 14.5 0.00 0.05 0.00 51 1012.4
20260503224515 8 314 8.0 20.9 0.00 0.10 0.00 49 1012.3
20260503223009 8 23 12.9 29.0 0.00 0.10 0.00 48 1012.0
20260503221510 8 360 1.6 19.3 0.00 0.10 0.00 50 1012.0
20260503220008 8 350 14.5 41.8 0.00 0.10 0.00 48 1012.0
20260503214509 8 299 11.3 27.4 0.00 0.18 0.00 48 1011.8
20260503213007 8 315 8.0 30.6 0.00 0.18 0.00 47 1011.6